QPF
0.00 0.00 0.00 0.00 0.00 0.00 0.00 0.00 0.00 0.00 0.00 0.00 0.00 0.00 0.00 0.00 0.00 0.00 0.00 0.00 0.00 0.00 0.00 0.00 0.00 0.00 0.00 0.00 0.00 0.00 0.00 0.00 0.00 0.00 0.00 0.00 0.00 0.00 0.00 0.00 0.00 0.00 0.00 0.00
0.00 0.00 0.00 0.00 0.00 0.00 0.00 0.00 0.00 0.00 0.00 0.00 0.00 0.00 0.00 0.00 0.00 0.00 0.00 0.00 0.00 0.00 0.00 0.00 0.00 0.00 0.00 0.00 0.00 0.00 0.00 0.00 0.00 0.00 0.00 0.00 0.00 0.00 0.00 0.00 0.00 0.00 0.00 0.00
0.00 0.00 0.00 0.00 0.00 0.00 0.00 0.00 0.00 0.00 0.00 0.00 0.00 0.00 0.00 0.00 0.00 0.00 0.00 0.00 0.00 0.00 0.00 0.00 0.00 0.00 0.00 0.00 0.00 0.00 0.00 0.00 0.00 0.00 0.00 0.00 0.00 0.00 0.00 0.00 0.00 0.00 0.00 0.00
0.00 0.00 0.00 0.00 0.00 0.00 0.00 0.00 0.00 0.00 0.00 0.00 0.00 0.00 0.00 0.00 0.00 0.00 0.00 0.00 0.00 0.00 0.00 0.00 0.00 0.00 0.00 0.00 0.00 0.00 0.00 0.00 0.00 0.00 0.00 0.00 0.00 0.00 0.00 0.00 0.00 0.00 0.00 0.00
0.00 0.00 0.00 0.00 0.00 0.00 0.00 0.00 0.00 0.00 0.00 0.00 0.00 0.00 0.00 0.00 0.00 0.00 0.00 0.01 0.00 0.00 0.00 0.00 0.00 0.00 0.00 0.00 0.00 0.00 0.00 0.00 0.00 0.00 0.00 0.00 0.00 0.00 0.00 0.00 0.00 0.00 0.00 0.00
0.00 0.00 0.00 0.00 0.00 0.00 0.00 0.00 0.00 0.00 0.00 0.00 0.00 0.00 0.00 0.00 0.00 0.00 0.05 0.04 0.01 0.00 0.00 0.00 0.00 0.00 0.00 0.00 0.00 0.00 0.00 0.00 0.00 0.00 0.00 0.00 0.00 0.00 0.00 0.00 0.00 0.01 0.02 0.01
0.00 0.00 0.00 0.00 0.00 0.00 0.00 0.00 0.00 0.00 0.00 0.00 0.00 0.00 0.00 0.00 0.01 0.07 0.10 0.02 0.01 0.04 0.03 0.00 0.00 0.00 0.00 0.00 0.00 0.00 0.00 0.00 0.00 0.00 0.00 0.00 0.00 0.00 0.00 0.00 0.00 0.00 0.00 0.00
0.00 0.00 0.00 0.00 0.00 0.00 0.00 0.00 0.00 0.01 0.00 0.00 0.00 0.00 0.00 0.00 0.03 0.06 0.10 0.07 0.10 0.15 0.09 0.03 0.01 0.00 0.00 0.00 0.00 0.00 0.00 0.00 0.00 0.00 0.00 0.00 0.00 0.00 0.00 0.01 0.00 0.00 0.00 0.00
0.00 0.00 0.00 0.00 0.00 0.00 0.00 0.00 0.00 0.01 0.00 0.01 0.00 0.00 0.00 0.00 0.00 0.00 0.03 0.06 0.12 0.14 0.10 0.05 0.02 0.02 0.01 0.00 0.00 0.00 0.00 0.02 0.02 0.02 0.03 0.05 0.06 0.12 0.07 0.03 0.06 0.02 0.00 0.00
0.00 0.00 0.00 0.00 0.00 0.00 0.00 0.00 0.00 0.02 0.01 0.00 0.00 0.00 0.00 0.00 0.00 0.00 0.01 0.05 0.13 0.05 0.05 0.09 0.11 0.07 0.03 0.01 0.01 0.01 0.04 0.07 0.12 0.19 0.17 0.14 0.12 0.17 0.12 0.11 0.08 0.04 0.00 0.00
0.00 0.00 0.00 0.00 0.00 0.00 0.00 0.00 0.00 0.01 0.00 0.05 0.03 0.00 0.00 0.02 0.01 0.01 0.02 0.14 0.16 0.04 0.01 0.18 0.23 0.19 0.10 0.04 0.05 0.04 0.06 0.10 0.16 0.18 0.16 0.14 0.15 0.17 0.17 0.15 0.12 0.10 0.07 0.03
0.00 0.00 0.00 0.00 0.00 0.00 0.00 0.00 0.00 0.08 0.05 0.04 0.07 0.02 0.00 0.01 0.01 0.02 0.07 0.16 0.20 0.08 0.07 0.58 0.51 0.20 0.10 0.06 0.03 0.04 0.06 0.08 0.09 0.14 0.16 0.14 0.11 0.12 0.16 0.18 0.18 0.15 0.13 0.13
0.00 0.00 0.00 0.00 0.00 0.00 0.00 0.00 0.00 0.04 0.06 0.03 0.05 0.01 0.00 0.00 0.00 0.04 0.06 0.09 0.11 0.21 0.27 0.70 0.70 0.24 0.04 0.01 0.01 0.01 0.02 0.05 0.06 0.08 0.12 0.15 0.13 0.12 0.13 0.13 0.15 0.12 0.10 0.08
0.00 0.00 0.00 0.00 0.00 0.00 0.00 0.00 0.00 0.03 0.06 0.03 0.01 0.02 0.00 0.00 0.03 0.06 0.03 0.05 0.07 0.21 0.40 0.62 0.52 0.12 0.07 0.11 0.03 0.02 0.01 0.02 0.02 0.02 0.04 0.06 0.07 0.07 0.12 0.13 0.10 0.06 0.05 0.09
0.00 0.00 0.00 0.00 0.00 0.00 0.00 0.00 0.00 0.01 0.04 0.07 0.03 0.01 0.04 0.08 0.15 0.11 0.04 0.04 0.04 0.14 0.31 0.30 0.28 0.08 0.02 0.05 0.03 0.01 0.01 0.01 0.01 0.01 0.00 0.00 0.00 0.01 0.00 0.00 0.01 0.01 0.00 0.03
0.00 0.00 0.00 0.00 0.00 0.00 0.00 0.00 0.00 0.00 0.01 0.00 0.00 0.00 0.07 0.15 0.16 0.05 0.04 0.02 0.02 0.13 0.29 0.41 0.31 0.10 0.01 0.00 0.00 0.00 0.00 0.00 0.00 0.01 0.01 0.01 0.00 0.00 0.01 0.00 0.00 0.00 0.05 0.07
0.00 0.00 0.00 0.00 0.00 0.00 0.00 0.00 0.00 0.00 0.01 0.03 0.06 0.11 0.08 0.05 0.07 0.07 0.06 0.03 0.02 0.04 0.19 0.29 0.31 0.21 0.04 0.00 0.00 0.00 0.00 0.00 0.00 0.00 0.00 0.00 0.01 0.01 0.02 0.03 0.00 0.04 0.08 0.33
0.00 0.00 0.00 0.00 0.00 0.00 0.00 0.00 0.00 0.00 0.02 0.03 0.04 0.06 0.08 0.08 0.14 0.15 0.03 0.02 0.01 0.00 0.01 0.06 0.08 0.06 0.03 0.00 0.00 0.00 0.00 0.00 0.00 0.00 0.00 0.00 0.00 0.00 0.00 0.00 0.01 0.01 0.04 0.09
0.00 0.00 0.00 0.00 0.00 0.00 0.00 0.00 0.00 0.00 0.01 0.00 0.01 0.01 0.01 0.02 0.06 0.05 0.01 0.00 0.01 0.00 0.00 0.00 0.00 0.00 0.00 0.00 0.00 0.00 0.00 0.00 0.00 0.00 0.00 0.00 0.00 0.00 0.00 0.00 0.00 0.00 0.00 0.06
0.00 0.00 0.00 0.00 0.00 0.00 0.00 0.00 0.00 0.00 0.01 0.00 0.01 0.02 0.01 0.00 0.00 0.00 0.01 0.00 0.00 0.00 0.00 0.00 0.00 0.00 0.00 0.00 0.00 0.00 0.00 0.00 0.00 0.00 0.00 0.00 0.00 0.00 0.00 0.00 0.00 0.00 0.00 0.01
0.00 0.00 0.00 0.00 0.00 0.00 0.00 0.00 0.00 0.00 0.00 0.00 0.01 0.03 0.01 0.01 0.02 0.02 0.01 0.00 0.00 0.00 0.00 0.00 0.00 0.00 0.00 0.00 0.00 0.00 0.00 0.00 0.00 0.00 0.00 0.00 0.00 0.00 0.00 0.00 0.00 0.00 0.00 0.00
0.00 0.00 0.00 0.00 0.00 0.00 0.00 0.00 0.00 0.00 0.00 0.00 0.01 0.03 0.03 0.02 0.02 0.01 0.00 0.00 0.00 0.00 0.00 0.00 0.00 0.00 0.00 0.00 0.00 0.00 0.00 0.00 0.00 0.00 0.00 0.00 0.00 0.00 0.00 0.00 0.00 0.00 0.00 0.00
0.00 0.00 0.00 0.00 0.00 0.00 0.00 0.00 0.00 0.00 0.00 0.00 0.01 0.02 0.02 0.02 0.02 0.01 0.00 0.00 0.00 0.00 0.00 0.00 0.00 0.00 0.00 0.00 0.00 0.00 0.00 0.00 0.00 0.00 0.00 0.00 0.00 0.00 0.00 0.00 0.00 0.00 0.00 0.00
0.00 0.00 0.00 0.00 0.00 0.00 0.00 0.00 0.00 0.00 0.00 0.00 0.00 0.01 0.02 0.02 0.02 0.01 0.00 0.00 0.00 0.00 0.00 0.00 0.00 0.00 0.00 0.00 0.00 0.00 0.00 0.00 0.00 0.00 0.00 0.00 0.00 0.00 0.00 0.00 0.00 0.00 0.00 0.00
0.00 0.00 0.00 0.00 0.00 0.00 0.00 0.00 0.00 0.00 0.00 0.00 0.00 0.00 0.01 0.00 0.01 0.00 0.00 0.00 0.00 0.00 0.00 0.00 0.00 0.00 0.00 0.00 0.00 0.00 0.00 0.00 0.00 0.00 0.00 0.00 0.00 0.00 0.00 0.01 0.00 0.00 0.01 0.00
0.00 0.00 0.00 0.00 0.00 0.00 0.00 0.00 0.00 0.00 0.00 0.00 0.00 0.00 0.00 0.00 0.00 0.00 0.00 0.00 0.00 0.00 0.00 0.00 0.00 0.00 0.00 0.00 0.00 0.00 0.00 0.00 0.00 0.00 0.00 0.00 0.00 0.00 0.00 0.00 0.00 0.01 0.01 0.01
MSLP
1015.95 1017.06 1017.86 1018.36 1018.60 1018.87 1019.23 1019.22 1018.56 1018.11 1017.20 1016.89 1016.20 1014.00 1011.94 1011.04 1010.33 1009.78 1009.01 1007.98 1006.78 1005.89 1004.37 1004.00 1003.35 1002.75 1002.90 1002.68 1002.51 1002.49 1002.40 1002.58 1003.84 1004.45 1005.21 1006.24 1006.67 1007.33 1007.82 1008.09 1008.66 1009.13 1009.56 1010.24
1017.18 1017.94 1018.00 1018.16 1018.52 1018.90 1019.22 1019.30 1018.53 1017.33 1017.00 1017.15 1015.39 1012.99 1011.28 1010.32 1009.47 1008.64 1007.61 1006.83 1005.74 1004.64 1003.81 1003.12 1002.78 1002.55 1002.05 1001.67 1001.32 1001.31 1001.36 1001.78 1002.34 1003.14 1003.26 1004.43 1005.30 1006.28 1007.02 1007.64 1008.12 1008.58 1009.00 1009.55
1017.39 1018.07 1018.07 1018.28 1018.84 1019.21 1019.30 1019.23 1018.95 1018.21 1016.23 1016.46 1015.68 1012.55 1010.64 1008.46 1008.22 1007.29 1006.11 1005.13 1004.29 1003.24 1002.36 1002.00 1001.73 1001.57 1001.32 1000.76 1000.50 1000.21 1000.34 1000.67 1001.04 1001.52 1002.95 1003.89 1004.97 1005.92 1006.65 1007.10 1007.34 1007.65 1008.31 1008.85
1017.75 1018.00 1018.18 1018.40 1018.83 1019.21 1019.21 1018.82 1018.84 1018.10 1018.23 1016.98 1016.26 1014.19 1010.99 1008.80 1007.85 1006.54 1005.22 1004.41 1002.70 1001.68 1000.72 1000.28 1000.17 1000.14 999.92 999.27 999.18 999.09 999.09 999.42 999.55 1000.57 1001.61 1002.37 1002.87 1003.91 1004.34 1004.91 1005.82 1006.78 1007.47 1008.18
1018.07 1018.04 1018.37 1018.70 1019.02 1019.25 1019.07 1018.69 1018.14 1017.71 1017.84 1017.45 1016.24 1015.64 1011.00 1009.57 1007.65 1006.41 1005.95 1005.42 1002.56 1000.30 999.45 998.82 998.50 998.49 998.45 997.97 998.01 998.11 998.20 998.49 998.60 999.63 1000.34 1001.22 1001.92 1002.48 1003.10 1004.28 1005.18 1006.02 1006.69 1007.36
1018.26 1018.27 1018.46 1018.63 1018.80 1018.98 1018.95 1018.38 1017.62 1017.59 1017.56 1016.97 1015.62 1015.24 1010.85 1009.48 1007.95 1006.42 1005.65 1005.06 1002.41 999.91 998.32 997.56 997.25 997.18 997.16 996.75 996.96 997.38 997.41 997.61 998.00 998.98 999.52 1000.23 1001.03 1001.58 1002.80 1003.47 1004.48 1005.24 1005.91 1006.51
1019.02 1018.91 1018.76 1018.81 1019.15 1019.26 1019.09 1018.79 1019.01 1018.37 1017.73 1016.70 1014.83 1014.18 1010.59 1008.89 1007.83 1007.07 1005.83 1004.75 1002.29 1000.44 998.69 997.76 997.47 996.96 996.39 996.10 996.44 996.42 996.69 996.91 997.32 998.20 999.12 999.81 1000.33 1000.99 1001.42 1002.18 1003.18 1004.36 1004.97 1005.66
1019.92 1019.86 1019.27 1019.23 1019.35 1019.62 1019.89 1020.32 1020.88 1020.84 1019.19 1017.06 1014.50 1013.05 1010.38 1008.85 1008.11 1007.00 1006.25 1004.72 1003.26 1001.50 1000.42 999.14 998.33 997.26 996.47 996.84 996.57 996.38 995.78 996.08 997.12 998.00 998.76 999.62 1000.07 1000.54 1001.44 1001.94 1002.38 1003.22 1003.93 1004.60
1020.03 1019.91 1019.41 1019.29 1019.33 1019.70 1020.29 1020.57 1020.52 1020.90 1019.38 1018.17 1014.41 1012.37 1010.26 1009.49 1008.73 1007.51 1006.37 1005.01 1003.78 1002.64 1001.32 1000.49 999.62 998.76 998.32 997.95 997.71 996.76 996.34 996.78 997.53 998.06 998.65 999.16 999.36 1000.19 1001.24 1001.91 1002.21 1002.76 1003.52 1004.20
1019.98 1020.30 1019.86 1019.53 1019.36 1019.71 1020.07 1020.34 1020.96 1020.97 1020.01 1017.99 1014.54 1012.88 1011.65 1010.53 1009.39 1008.19 1006.73 1005.96 1005.17 1004.14 1002.90 1001.93 1001.12 1000.76 1000.18 999.47 999.20 998.53 997.33 997.65 998.15 997.92 998.48 999.07 999.55 1000.40 1001.00 1001.79 1002.09 1002.56 1003.09 1003.76
1019.81 1020.46 1020.44 1020.04 1019.99 1020.12 1020.32 1020.52 1020.89 1020.77 1020.27 1019.08 1016.22 1013.17 1012.51 1011.88 1010.96 1009.66 1008.14 1007.40 1006.63 1006.13 1004.99 1003.87 1003.28 1003.01 1002.55 1001.09 1000.44 1000.00 999.22 999.94 1000.79 1000.12 999.24 999.59 1000.13 1000.80 1001.58 1002.10 1002.45 1002.58 1002.53 1003.28
1019.93 1020.88 1021.21 1020.68 1019.94 1019.78 1020.07 1020.42 1020.70 1020.77 1020.12 1019.07 1017.37 1013.76 1012.51 1012.56 1011.73 1011.00 1009.79 1009.20 1008.64 1008.15 1007.38 1006.53 1005.92 1005.23 1004.37 1003.19 1002.62 1001.80 1001.93 1001.77 1001.53 1001.19 1000.53 1000.78 1000.46 1000.17 1001.33 1002.36 1002.60 1003.15 1003.02 1003.36
1019.94 1021.26 1021.82 1021.15 1020.74 1020.30 1020.48 1020.52 1020.59 1020.62 1020.06 1018.96 1018.07 1014.59 1014.15 1013.86 1012.77 1011.76 1010.98 1010.61 1010.49 1010.03 1009.10 1008.73 1007.57 1007.54 1006.64 1005.10 1004.19 1003.82 1003.80 1003.77 1003.99 1002.89 1002.42 1002.39 1002.31 1002.49 1002.91 1002.75 1003.00 1003.12 1002.99 1003.15
1019.61 1021.05 1021.96 1021.90 1021.26 1021.06 1020.84 1020.60 1020.48 1020.67 1020.39 1019.24 1018.23 1016.72 1015.29 1015.07 1014.46 1012.60 1012.17 1012.01 1012.21 1011.91 1011.23 1010.98 1010.77 1008.78 1007.90 1007.03 1006.70 1005.86 1005.48 1005.38 1005.36 1004.51 1004.34 1004.52 1004.18 1004.23 1004.05 1003.23 1002.82 1002.72 1002.81 1003.11
1020.17 1021.30 1021.41 1021.45 1021.06 1020.95 1020.79 1020.60 1020.55 1020.77 1020.37 1019.71 1018.65 1017.77 1017.40 1017.20 1016.60 1015.16 1014.21 1013.48 1013.18 1013.21 1012.81 1012.03 1011.08 1009.58 1009.07 1008.07 1007.56 1007.67 1007.63 1008.21 1007.50 1006.66 1006.33 1005.94 1005.51 1005.00 1004.65 1004.16 1003.66 1003.07 1003.16 1003.15
1020.68 1021.12 1021.50 1021.11 1020.41 1020.54 1020.52 1020.40 1020.77 1020.78 1020.39 1019.99 1019.40 1018.51 1018.46 1017.91 1017.36 1015.98 1015.78 1015.44 1014.81 1014.48 1013.99 1013.53 1012.81 1011.94 1011.14 1010.70 1010.38 1010.21 1009.47 1008.79 1008.21 1007.76 1007.69 1007.52 1006.97 1006.33 1005.85 1005.35 1004.81 1004.21 1003.72 1003.75
1020.92 1021.33 1021.54 1020.78 1020.16 1020.31 1020.50 1020.34 1020.90 1020.93 1020.82 1020.92 1020.23 1019.61 1018.73 1018.01 1018.06 1017.63 1017.13 1016.88 1016.53 1016.03 1015.36 1014.92 1014.40 1013.61 1013.14 1012.38 1012.42 1011.73 1010.92 1010.17 1009.63 1009.34 1008.90 1008.61 1007.96 1007.54 1007.17 1006.60 1006.02 1005.47 1005.02 1004.74
1020.67 1021.43 1021.48 1020.92 1020.26 1020.33 1019.96 1020.19 1020.50 1020.74 1020.86 1021.21 1020.73 1020.01 1019.52 1018.87 1018.55 1018.53 1018.45 1018.14 1017.76 1017.22 1016.82 1016.39 1015.88 1015.05 1014.19 1013.84 1013.42 1012.67 1011.95 1011.35 1010.78 1010.56 1010.38 1009.93 1009.30 1008.68 1008.20 1007.73 1007.23 1006.68 1006.17 1005.95
1020.43 1021.05 1021.36 1021.16 1020.80 1020.36 1020.16 1020.50 1020.98 1021.06 1021.45 1021.48 1021.16 1020.40 1019.78 1019.16 1018.48 1018.57 1019.05 1018.96 1018.73 1018.30 1017.74 1017.37 1016.98 1016.21 1015.83 1015.19 1014.43 1013.80 1013.08 1012.24 1011.81 1011.60 1011.27 1010.82 1010.29 1009.55 1009.18 1008.68 1008.11 1007.77 1007.50 1007.10
1020.63 1021.02 1021.36 1021.35 1021.18 1020.74 1020.26 1020.49 1020.88 1021.17 1021.55 1021.77 1021.40 1020.85 1020.23 1019.69 1019.32 1019.35 1019.40 1019.36 1019.17 1019.05 1018.56 1018.15 1017.67 1017.20 1016.54 1015.84 1015.24 1014.67 1013.84 1013.31 1013.04 1012.87 1012.52 1011.97 1011.44 1010.80 1010.44 1009.99 1009.40 1008.93 1008.60 1008.36
1021.00 1021.44 1021.47 1021.34 1021.41 1020.75 1020.61 1020.64 1020.76 1021.70 1022.56 1021.89 1021.74 1021.24 1020.78 1020.66 1020.84 1020.67 1020.58 1020.18 1020.09 1019.77 1019.24 1018.73 1017.94 1017.61 1017.27 1016.70 1015.98 1015.33 1014.65 1014.32 1014.24 1013.73 1013.08 1012.49 1011.99 1011.53 1011.35 1011.06 1010.56 1010.05 1009.62 1009.22
1020.72 1021.22 1021.63 1021.58 1021.72 1021.35 1020.81 1020.79 1021.25 1022.27 1022.02 1022.11 1022.00 1021.54 1021.14 1021.21 1021.25 1021.32 1021.31 1020.90 1020.54 1020.43 1020.05 1019.30 1018.55 1018.37 1017.97 1017.68 1016.94 1016.25 1015.71 1015.53 1014.84 1014.34 1013.85 1013.53 1013.23 1012.76 1012.30 1011.84 1011.30 1010.75 1010.41 1010.15
1021.11 1020.99 1021.21 1021.31 1020.98 1020.75 1020.95 1021.25 1021.57 1021.99 1022.15 1022.18 1022.23 1021.99 1021.75 1021.60 1021.70 1021.98 1022.09 1021.88 1021.37 1021.22 1021.01 1020.26 1019.64 1019.45 1018.98 1018.56 1018.00 1017.23 1016.85 1016.16 1015.42 1015.07 1014.74 1014.42 1014.06 1013.49 1012.95 1012.45 1012.14 1011.77 1011.68 1011.41
1021.05 1021.02 1021.16 1021.31 1020.93 1020.75 1021.02 1021.35 1021.58 1021.93 1022.00 1022.17 1022.38 1022.34 1022.26 1022.35 1022.63 1022.80 1022.82 1022.68 1022.48 1022.33 1021.83 1021.05 1020.55 1020.41 1020.01 1019.38 1018.79 1018.11 1017.35 1016.72 1016.20 1015.92 1015.66 1015.46 1015.23 1014.93 1014.41 1014.07 1013.71 1013.19 1012.85 1012.55
1021.63 1021.45 1021.53 1021.46 1020.92 1020.86 1021.07 1021.40 1021.75 1021.94 1022.01 1022.23 1022.51 1022.84 1022.82 1022.97 1023.17 1023.23 1023.16 1023.25 1023.11 1022.70 1022.29 1021.48 1021.16 1021.07 1020.75 1019.99 1019.66 1018.91 1018.18 1017.66 1017.10 1016.71 1016.53 1016.36 1016.20 1016.13 1015.86 1015.36 1015.07 1014.63 1014.47 1014.17
1021.26 1021.20 1021.59 1021.44 1020.99 1021.05 1021.30 1021.55 1021.98 1022.11 1022.21 1022.56 1022.86 1023.10 1023.30 1023.42 1023.75 1023.73 1023.80 1023.76 1023.44 1023.01 1022.61 1022.04 1021.87 1021.79 1021.42 1020.75 1020.25 1019.49 1019.30 1018.74 1018.14 1017.62 1017.43 1017.41 1017.35 1017.21 1016.82 1016.51 1016.42 1016.21 1015.85 1015.54
Thickness
5568 5556 5546 5551 5553 5553 5548 5540 5534 5544 5551 5541 5541 5567 5587 5585 5576 5566 5563 5573 5587 5597 5617 5623 5637 5648 5649 5658 5663 5670 5678 5687 5683 5683 5686 5684 5685 5685 5683 5684 5681 5679 5679 5677
5547 5537 5549 5549 5547 5541 5536 5526 5530 5550 5549 5537 5541 5560 5576 5571 5563 5553 5553 5554 5563 5577 5594 5604 5614 5623 5636 5647 5656 5663 5670 5677 5682 5683 5691 5689 5688 5685 5682 5679 5679 5676 5676 5676
5538 5540 5544 5540 5530 5525 5523 5517 5520 5526 5545 5532 5523 5546 5566 5575 5559 5548 5552 5548 5544 5548 5566 5582 5596 5609 5623 5634 5646 5658 5665 5671 5678 5685 5679 5678 5677 5674 5674 5676 5678 5680 5676 5674
5534 5538 5533 5528 5526 5518 5506 5525 5517 5515 5500 5500 5502 5481 5541 5543 5538 5541 5544 5540 5536 5536 5545 5560 5582 5599 5617 5634 5644 5653 5663 5668 5677 5677 5675 5679 5682 5681 5688 5689 5686 5680 5675 5672
5529 5530 5522 5518 5517 5512 5505 5513 5511 5513 5495 5484 5486 5456 5500 5524 5524 5529 5519 5502 5516 5527 5526 5540 5562 5591 5612 5630 5637 5646 5653 5661 5670 5671 5675 5676 5682 5686 5690 5683 5680 5677 5674 5671
5522 5521 5517 5515 5513 5506 5506 5504 5507 5504 5489 5484 5491 5465 5514 5508 5509 5519 5513 5498 5511 5522 5530 5536 5550 5579 5604 5620 5629 5636 5644 5654 5663 5671 5676 5677 5681 5682 5677 5680 5676 5674 5672 5670
5502 5508 5509 5509 5493 5494 5485 5482 5475 5491 5492 5494 5505 5479 5506 5511 5513 5510 5509 5505 5515 5524 5526 5532 5538 5563 5597 5612 5626 5637 5647 5653 5660 5666 5668 5671 5675 5676 5679 5679 5676 5671 5670 5668
5484 5483 5498 5497 5492 5487 5473 5466 5431 5404 5458 5467 5494 5477 5494 5512 5508 5512 5509 5513 5514 5522 5525 5535 5550 5576 5598 5611 5625 5636 5649 5652 5652 5658 5662 5664 5664 5670 5669 5670 5672 5671 5667 5668
5473 5478 5494 5491 5488 5476 5460 5451 5458 5407 5445 5441 5481 5492 5512 5503 5500 5505 5508 5511 5510 5518 5526 5533 5547 5567 5585 5599 5611 5625 5635 5638 5641 5648 5654 5656 5662 5663 5660 5660 5662 5662 5663 5664
5478 5459 5483 5481 5480 5475 5462 5461 5423 5426 5421 5445 5475 5484 5484 5478 5485 5496 5506 5504 5503 5510 5519 5528 5542 5551 5566 5580 5589 5597 5616 5624 5629 5639 5644 5648 5654 5650 5648 5646 5651 5655 5657 5657
5471 5463 5472 5469 5444 5451 5441 5423 5427 5430 5425 5438 5454 5486 5474 5473 5476 5480 5498 5495 5493 5497 5508 5519 5527 5534 5539 5559 5568 5576 5592 5596 5596 5613 5630 5634 5636 5636 5635 5637 5639 5644 5651 5650
5463 5447 5445 5456 5461 5458 5448 5445 5433 5412 5418 5442 5440 5468 5485 5471 5477 5476 5480 5476 5477 5476 5486 5495 5500 5510 5522 5535 5545 5556 5563 5570 5583 5597 5611 5616 5626 5636 5632 5627 5630 5628 5634 5638
5458 5434 5418 5444 5450 5450 5444 5439 5438 5430 5425 5435 5434 5468 5472 5461 5461 5471 5474 5468 5463 5461 5470 5472 5481 5486 5500 5518 5530 5537 5542 5551 5560 5578 5589 5593 5600 5607 5610 5614 5614 5616 5623 5630
5459 5434 5403 5387 5415 5423 5416 5428 5427 5423 5421 5432 5440 5436 5452 5444 5444 5472 5468 5461 5449 5449 5448 5453 5454 5474 5489 5501 5509 5521 5530 5538 5542 5555 5562 5564 5574 5580 5587 5598 5605 5611 5619 5623
5444 5419 5419 5427 5428 5424 5427 5422 5424 5399 5419 5425 5430 5432 5430 5425 5426 5441 5446 5450 5448 5442 5440 5446 5454 5466 5481 5488 5500 5504 5512 5511 5522 5534 5542 5550 5559 5567 5574 5582 5593 5604 5609 5615
5429 5426 5426 5427 5430 5423 5426 5427 5419 5415 5423 5420 5425 5433 5421 5421 5420 5431 5431 5431 5434 5435 5433 5435 5442 5451 5462 5469 5475 5480 5493 5505 5515 5523 5528 5534 5543 5554 5562 5570 5580 5589 5599 5603
5422 5418 5418 5426 5435 5424 5411 5414 5406 5394 5410 5402 5406 5413 5418 5424 5416 5417 5421 5421 5422 5426 5429 5426 5430 5436 5443 5455 5458 5468 5479 5491 5501 5507 5514 5521 5531 5539 5546 5554 5563 5571 5579 5585
5416 5412 5412 5416 5422 5389 5414 5417 5415 5405 5405 5395 5399 5405 5407 5413 5412 5409 5409 5411 5413 5417 5421 5421 5422 5428 5434 5439 5447 5458 5470 5479 5488 5493 5497 5505 5514 5524 5531 5538 5546 5554 5562 5568
5415 5409 5396 5400 5413 5423 5403 5411 5400 5398 5393 5389 5389 5398 5405 5409 5416 5413 5403 5403 5405 5409 5415 5416 5417 5423 5426 5431 5437 5445 5456 5468 5474 5479 5486 5494 5502 5512 5516 5523 5531 5537 5543 5551
5406 5405 5408 5401 5404 5377 5402 5403 5395 5395 5393 5382 5386 5389 5397 5401 5402 5406 5397 5399 5399 5400 5404 5409 5412 5416 5421 5425 5432 5437 5447 5455 5460 5465 5471 5480 5488 5497 5501 5506 5514 5521 5527 5532
5400 5398 5398 5394 5392 5394 5392 5389 5391 5398 5372 5378 5378 5383 5389 5390 5390 5386 5384 5390 5389 5390 5393 5399 5408 5414 5417 5420 5424 5430 5439 5444 5449 5457 5464 5472 5479 5486 5489 5493 5500 5507 5513 5519
5399 5382 5362 5376 5376 5380 5383 5388 5395 5369 5373 5372 5371 5377 5382 5382 5380 5376 5373 5378 5382 5380 5383 5390 5399 5402 5408 5410 5416 5421 5427 5431 5440 5447 5454 5459 5464 5470 5476 5482 5488 5495 5500 5504
5371 5377 5375 5377 5373 5379 5377 5372 5372 5367 5366 5365 5365 5368 5370 5373 5373 5369 5365 5367 5371 5371 5372 5379 5386 5388 5394 5398 5404 5411 5415 5423 5432 5438 5442 5447 5452 5459 5466 5471 5475 5480 5482 5486
5386 5381 5369 5381 5378 5375 5369 5367 5364 5360 5361 5361 5359 5361 5361 5359 5358 5357 5355 5356 5357 5357 5362 5370 5376 5377 5380 5388 5395 5401 5408 5416 5422 5427 5431 5434 5437 5442 5448 5451 5456 5462 5465 5469
5356 5361 5354 5364 5373 5367 5362 5358 5353 5352 5354 5356 5351 5350 5352 5348 5347 5348 5351 5348 5350 5352 5355 5363 5367 5369 5371 5378 5382 5389 5397 5403 5411 5416 5419 5422 5425 5426 5430 5436 5439 5443 5446 5449
5351 5346 5337 5337 5354 5351 5353 5345 5342 5342 5346 5343 5342 5342 5342 5341 5336 5337 5338 5341 5344 5347 5351 5356 5358 5358 5361 5367 5372 5380 5383 5388 5398 5404 5407 5408 5410 5412 5417 5421 5422 5424 5428 5431